Location: Foligno
(42.9600°N, 12.7050°E)
Time: 11:23:51
(UTC+02:00)

ISS - Pass Details

Date: 06 May 2021
Orbit: 417 x 422 km, 51.6° (Epoch: 15 May)

Event Time Altitude Azimuth Distance (km) Brightness Sun altitude
Exits shadow 04:21:14 - 298° (WNW) 1,707 -0.9 -15.5°
Reaches altitude 10° 04:21:53 10° 305° (NW) 1,504 -1.1 -15.4°
Maximum altitude 04:24:24 19° 353° (N) 1,067 -1.3 -15.1°
Drops below altitude 10° 04:26:56 10° 42° (NE) 1,507 0.4 -14.7°
Sets 04:29:27 0° 61° (ENE) 2,373 1.8 -14.4°
